Weather History for Washington, GA

Change the Weather History Date:

Tuesday, April 15, 2014

  Actual Average (KDBN) Record (KDBN)
Temperature  
Mean Temperature 54 °F -  
Max Temperature 66 °F 77 °F 91 °F (1936)
Min Temperature 42 °F 51 °F 31 °F (1943)
Degree Days  
Heating Degree Days 11    
Growing Degree Days 4 (Base 50)    
Moisture  
Dew Point 42 °F    
Average Humidity 65    
Maximum Humidity 100    
Minimum Humidity 51    
Precipitation  
Precipitation 0.00 in - - ()
Sea Level Pressure  
Sea Level Pressure 29.80 in    
Wind  
Wind Speed 8 mph (WSW)    
Max Wind Speed 20 mph    
Max Gust Speed 33 mph    
Visibility 9 miles    
Events Rain , Thunderstorm    
Averages and records for this station are not official NWS values.
T = Trace of Precipitation, MM = Missing Value Source: NWS Daily Summary

Daily Weather History Graph

Daily Weather History Graph

Search for Another Location

Airport:

Trip Planner

Search our weather history database for the weather conditions in past years. The results will help you decide how hot, cold, wet, or windy it might be!

Date:

Astronomy

Apr. 15, 2014 Rise Set
Actual Time 7:00 AM EDT 8:02 PM EDT
Civil Twilight 6:34 AM EDT 8:28 PM EDT
Nautical Twilight 6:04 AM EDT 8:58 PM EDT
Astronomical Twilight 5:33 AM EDT 9:30 PM EDT
Moon 8:40 PM EDT (4/15) 7:08 AM EDT (4/15)
Length of Visible Light 13h 53m
Length of Day
13h 01m
Full, 100% of the Moon is Illuminated
Apr 15
Full
Apr 22
Last Quarter
Apr 29
New
May 6
First Quarter
May 14
Full

Hourly Weather History & Observations

Time (EDT) Temp. Windchill Dew Point Humidity Pressure Visibility Wind Dir Wind Speed Gust Speed Precip Events Conditions
12:15 AM 62.6 °F - - N/A% 29.82 in 1.8 mi Calm Calm - N/A Rain Light Rain
12:35 AM 62.6 °F - - N/A% 29.82 in 1.2 mi ESE 3.5 mph - N/A Rain Rain
1:15 AM 64.4 °F - - N/A% 29.82 in 3.0 mi South 3.5 mph - N/A Rain Rain
1:35 AM 64.4 °F - - N/A% 29.83 in 3.0 mi WSW 6.9 mph - N/A Rain , Thunderstorm Heavy Thunderstorms and Rain
1:55 AM 64.4 °F - - N/A% 29.82 in 4.0 mi SW 8.1 mph - N/A Rain Heavy Rain
2:15 AM 64.4 °F - - N/A% 29.81 in 5.0 mi SW 6.9 mph - N/A Rain Rain
2:35 AM 64.4 °F - - N/A% 29.81 in 5.0 mi SW 5.8 mph - N/A Rain Light Rain
2:55 AM 64.4 °F - - N/A% 29.81 in 5.0 mi SW 9.2 mph - N/A Rain Rain
3:15 AM 64.4 °F - - N/A% 29.80 in 10.0 mi WSW 9.2 mph - N/A Rain Rain
3:35 AM 62.6 °F - - N/A% 29.79 in 10.0 mi West 4.6 mph - N/A Rain Light Rain
3:55 AM 62.6 °F - - N/A% 29.79 in 10.0 mi West 5.8 mph - N/A   Scattered Clouds
4:15 AM 62.6 °F - - N/A% 29.78 in 10.0 mi SW 3.5 mph - N/A Rain Rain
4:35 AM 62.6 °F - - N/A% 29.76 in 10.0 mi Calm Calm - N/A   Clear
4:55 AM 62.6 °F - - N/A% 29.77 in 7.0 mi South 3.5 mph - N/A   Clear
5:15 AM 62.6 °F - - N/A% 29.77 in 7.0 mi South 4.6 mph - N/A   Scattered Clouds
5:35 AM 62.6 °F - - N/A% 29.78 in 5.0 mi South 8.1 mph - N/A Rain Rain
5:55 AM 62.6 °F - - N/A% 29.76 in 7.0 mi SW 3.5 mph - N/A Rain Light Rain
6:15 AM 62.6 °F - - N/A% 29.74 in 10.0 mi SSE 4.6 mph - N/A Rain Rain
6:35 AM 64.4 °F - - N/A% 29.71 in 7.0 mi SSE 11.5 mph 17.3 mph N/A Rain Rain
6:55 AM 64.4 °F - - N/A% 29.73 in 10.0 mi SSW 5.8 mph - N/A   Mostly Cloudy
7:15 AM 62.6 °F - - N/A% 29.71 in 10.0 mi South 6.9 mph - N/A Rain Light Rain
7:35 AM 62.6 °F - - N/A% 29.73 in 10.0 mi SSW 6.9 mph - N/A   Light Drizzle
7:55 AM 62.6 °F - - N/A% 29.72 in 10.0 mi SSW 4.6 mph - N/A Rain Light Rain
8:15 AM 62.6 °F - - N/A% 29.71 in 10.0 mi South 8.1 mph - N/A Rain Rain
8:35 AM 62.6 °F - - N/A% 29.70 in 10.0 mi South 10.4 mph - N/A   Mostly Cloudy
8:55 AM 62.6 °F - - N/A% 29.69 in 10.0 mi South 10.4 mph 17.3 mph N/A Rain Light Rain
9:15 AM 62.6 °F - - N/A% 29.69 in 10.0 mi South 10.4 mph 27.6 mph N/A   Mostly Cloudy
9:35 AM 64.4 °F - - N/A% 29.70 in 10.0 mi South 9.2 mph 16.1 mph N/A   Overcast
9:55 AM 64.4 °F - - N/A% 29.70 in 10.0 mi South 10.4 mph - N/A   Overcast
10:15 AM 64.4 °F - - N/A% 29.70 in 10.0 mi SSW 8.1 mph - N/A   Overcast
10:35 AM 64.4 °F - - N/A% 29.71 in 10.0 mi SSW 9.2 mph 18.4 mph N/A   Overcast
10:55 AM 64.4 °F - - N/A% 29.72 in 10.0 mi SSW 9.2 mph - N/A   Overcast
11:15 AM 64.4 °F - - N/A% 29.72 in 10.0 mi SSW 6.9 mph 16.1 mph N/A   Overcast
11:35 AM 64.4 °F - - N/A% 29.71 in 10.0 mi SSW 6.9 mph - N/A   Mostly Cloudy
11:55 AM 66.2 °F - - N/A% 29.71 in 10.0 mi SSW 6.9 mph - N/A   Mostly Cloudy
12:35 PM 66.2 °F - 66.2 °F 100% 29.69 in 7.0 mi WSW 8.1 mph - N/A Rain Light Rain
12:55 PM 59.0 °F - 59.0 °F 100% 29.73 in 5.0 mi West 13.8 mph 32.2 mph N/A Rain Light Rain
1:35 PM 59.0 °F - 59.0 °F 100% 29.73 in 10.0 mi WNW 16.1 mph 23.0 mph N/A   Unknown
2:15 PM 60.8 °F - 55.4 °F 82% 29.74 in 10.0 mi West 16.1 mph 24.2 mph N/A   Unknown
2:35 PM 62.6 °F - 55.4 °F 77% 29.73 in 10.0 mi WNW 9.2 mph 27.6 mph N/A   Unknown
2:55 PM 62.6 °F - 53.6 °F 72% 29.73 in 10.0 mi WNW 10.4 mph 18.4 mph N/A   Scattered Clouds
3:15 PM 62.6 °F - 53.6 °F 72% 29.74 in 10.0 mi West 18.4 mph 25.3 mph N/A   Mostly Cloudy
3:35 PM 62.6 °F - 53.6 °F 72% 29.73 in 10.0 mi West 13.8 mph 20.7 mph N/A   Mostly Cloudy
3:55 PM 62.6 °F - 51.8 °F 68% 29.73 in 10.0 mi West 16.1 mph 25.3 mph N/A   Mostly Cloudy
4:15 PM 62.6 °F - 51.8 °F 68% 29.74 in 10.0 mi West 17.3 mph 24.2 mph N/A   Mostly Cloudy
4:35 PM 60.8 °F - 50.0 °F 68% 29.75 in 10.0 mi West 15.0 mph 24.2 mph N/A   Mostly Cloudy
4:55 PM 60.8 °F - 48.2 °F 63% 29.75 in 10.0 mi West 18.4 mph 24.2 mph N/A   Scattered Clouds
5:15 PM 60.8 °F - 44.6 °F 55% 29.76 in 10.0 mi West 18.4 mph 29.9 mph N/A   Scattered Clouds
5:35 PM 60.8 °F - 42.8 °F 52% 29.78 in 10.0 mi WNW 16.1 mph 28.8 mph N/A   Clear
5:55 PM 59.0 °F - 41.0 °F 51% 29.79 in 10.0 mi WNW 19.6 mph 29.9 mph N/A   Clear
6:15 PM 59.0 °F - 41.0 °F 51% 29.81 in 10.0 mi WNW 17.3 mph 29.9 mph N/A   Clear
6:35 PM 57.2 °F - 39.2 °F 51% 29.83 in 10.0 mi WNW 17.3 mph 27.6 mph N/A   Clear
6:55 PM 53.6 °F - 35.6 °F 51% 29.86 in 10.0 mi WNW 15.0 mph 28.8 mph N/A   Clear
7:15 PM 53.6 °F - 35.6 °F 51% 29.87 in 10.0 mi WNW 17.3 mph 29.9 mph N/A   Clear
7:35 PM 53.6 °F - 37.4 °F 54% 29.89 in 10.0 mi WNW 19.6 mph 33.4 mph N/A   Clear
7:55 PM 50.0 °F - 35.6 °F 58% 29.91 in 10.0 mi WNW 19.6 mph 26.5 mph N/A   Clear
8:15 PM 48.2 °F - 33.8 °F 58% 29.92 in 10.0 mi WNW 13.8 mph 25.3 mph N/A   Clear
8:35 PM 46.4 °F 40.4 °F 33.8 °F 62% 29.94 in 10.0 mi WNW 13.8 mph 26.5 mph N/A   Clear
8:55 PM 46.4 °F 40.7 °F 32.0 °F 57% 29.94 in 10.0 mi NW 12.7 mph 21.9 mph N/A   Clear
9:15 PM 44.6 °F 38.4 °F 32.0 °F 61% 29.94 in 10.0 mi NW 12.7 mph 21.9 mph N/A   Clear
9:35 PM 44.6 °F 39.2 °F 32.0 °F 61% 29.95 in 10.0 mi NW 10.4 mph 19.6 mph N/A   Clear
9:55 PM 44.6 °F 39.7 °F 32.0 °F 61% 29.99 in 10.0 mi NW 9.2 mph 17.3 mph N/A   Clear
10:15 PM 44.6 °F 41.4 °F 32.0 °F 61% 30.00 in 10.0 mi NW 5.8 mph - N/A   Clear
10:30 PM 44.6 °F 40.7 °F 32.0 °F 61% 30.02 in 10.0 mi NW 6.9 mph - N/A   Clear
10:55 PM 42.8 °F 39.3 °F 30.2 °F 61% 30.02 in 10.0 mi NW 5.8 mph - N/A   Clear
11:15 PM 42.8 °F 40.1 °F 30.2 °F 61% 30.04 in 10.0 mi NW 4.6 mph - N/A   Clear
11:35 PM 42.8 °F 39.3 °F 32.0 °F 66% 30.05 in 10.0 mi NW 5.8 mph - N/A   Clear
11:55 PM 42.8 °F 38.6 °F 32.0 °F 66% 30.06 in 10.0 mi NW 6.9 mph - N/A   Clear